sat.trackr.live / text

‹ back to catalog

STARLINK-34237

NORAD 64194 · 2025-113AA

PAYLOAD ACTIVE UNKNOWN

§ Identity

Operator
Country
US
Launch date
2025-05-28
Launch site
AFETR
Launch vehicle
Mass (kg)
RCS (m²)

Purposes: comms

External: N2YO · Heavens-Above · Gunter

§ Orbital elements

Epoch: 2026-09-20T05:34:12.703008Z

Period
94.01 min
Inclination
53.1608°
Eccentricity
0.0001725
Mean motion
15.31712031 rev/d
Perigee alt
469.5 km
Apogee alt
471.9 km
Semi-major
6,848.8 km
B*
3.1175e-4
RAAN
265.8491°
Arg perigee
74.6736°
Mean anomaly
285.4456°
Rev number
7,483

§ Raw data

STARLINK-342371 64194U 25113AA  26263.23209147  .00009325  00000+0  31175-3 0  99912 64194  53.1608 265.8491 0001725  74.6736 285.4456 15.31712031 74832

JSON: /api/v1/satellites/64194 · /tle

For live sub-satellite position, see the globe view (requires WebGL).

§ Visibility from observer

Set your observer location to see the next 7 days of passes ≥ 10°. The values pass through the URL so the page stays shareable.

No JS? Fill the form by hand. The geolocation button needs JavaScript.